User: anonymous   Login
Location: Unspecified
(0.0000°N, 0.0000°E)
Time: 11:03:37
(UTC+00:00)
Language:

OPS 7613 P/L 1 - Orbit

View from above orbital plane
View from above orbital plane
View from above satellite
View from above satellite

Ground track
Ground track

The orbit data is extracted from the following two-line orbital elements,

1  4256U 69082B   17268.56994084 -.00000028 +00000-0 +18000-4 0  9995
2  4256 070.0111 323.3341 0022455 274.8918 084.9625 13.98267088444935
Epoch (UTC): 25 September 2017 13:40:42
Eccentricity: 0.0022455
inclination: 70.0111°
perigee height: 883 km
apogee height: 916 km
right ascension of ascending node: 323.3341°
argument of perigee: 274.8918°
revolutions per day: 13.98267088
mean anomaly at epoch: 84.9625°
orbit number at epoch: 44493

The dashed part of the orbit path shows where the satellite is in the earth's shadow,  

DLR